CW7748 Weather Reports


Display with metric or nautical units.
time (UTC)temp
F
wind
direction
speed
MPH
gust
MPH
rain 1hr
in
rain 24hr
in
rain mn
in
humidity
%
barometer
mb
20180521205227 73 189 1.0 3.0 0.01 0.31 0.30 94 1017.3
20180521204748 73 193 1.0 4.0 0.02 0.31 0.30 94 1017.2
20180521204253 73 193 2.0 5.0 0.01 0.30 0.30 94 1017.2
20180521203740 73 155 1.0 5.0 0.01 0.30 0.29 94 1017.3
20180521203229 73 104 2.0 4.0 0.01 0.30 0.29 94 1017.3
20180521202729 73 76 1.0 5.0 0.01 0.30 0.29 94 1017.3
20180521202231 73 61 2.0 5.0 0.01 0.30 0.29 93 1017.3
20180521201723 73 83 2.0 4.0 0.01 0.30 0.29 93 1017.2
20180521201247 73 0 3.0 4.0 0.01 0.30 0.29 93 1017.2
20180521200725 73 102 2.0 4.0 0.01 0.30 0.29 93 1017.3
20180521200239 73 83 3.0 5.0 0.01 0.30 0.29 92 1017.5
20180521195727 73 102 2.0 5.0 0.01 0.30 0.29 91 1017.5
20180521195225 74 124 0.0 9.0 0.01 0.30 0.29 91 1017.5
20180521194722 74 61 4.0 9.0 0.00 0.29 0.28 89 1017.0
20180521194226 74 68 4.0 7.0 0.00 0.29 0.28 88 1017.1
20180521193722 74 100 4.0 12.0 0.00 0.30 0.28 88 1017.2
20180521193236 74 96 6.0 13.0 0.00 0.30 0.28 87 1017.2
20180521192738 75 103 5.0 13.0 0.00 0.30 0.28 87 1017.1
20180521192233 75 45 6.0 15.0 0.00 0.31 0.28 86 1017.1
20180521191726 75 17 7.0 15.0 0.00 0.31 0.28 85 1017.1
20180521191225 76 92 7.0 16.0 0.00 0.31 0.28 84 1017.2
20180521190728 76 90 9.0 16.0 0.00 0.31 0.28 82 1017.2
20180521190230 78 92 6.0 17.0 0.00 0.32 0.28 77 1017.2
20180521185728 81 114 9.0 17.0 0.00 0.33 0.28 75 1017.2
20180521185233 83 118 6.0 11.0 0.00 0.33 0.28 74 1016.9
20180521184728 82 140 6.0 12.0 0.00 0.33 0.28 76 1016.7
20180521184238 82 103 5.0 12.0 0.00 0.34 0.28 75 1016.7
20180521183721 83 71 4.0 10.0 0.00 0.34 0.28 77 1016.7
20180521183237 83 51 4.0 7.0 0.00 0.35 0.28 78 1016.9
20180521182730 83 92 2.0 9.0 0.00 0.36 0.28 80 1016.8
20180521182230 82 133 4.0 9.0 0.00 0.36 0.28 80 1016.8
20180521181730 81 83 4.0 9.0 0.00 0.36 0.28 79 1016.9
20180521181218 81 94 4.0 9.0 0.00 0.36 0.28 80 1017.2
20180521180717 80 134 4.0 7.0 0.00 0.36 0.28 79 1017.5
20180521180239 80 54 4.0 10.0 0.00 0.37 0.28 80 1017.5
20180521175730 80 127 4.0 10.0 0.00 0.37 0.28 80 1017.4
20180521175240 80 179 4.0 10.0 0.00 0.37 0.28 80 1017.5
20180521174729 80 127 2.0 6.0 0.00 0.37 0.28 82 1017.6
20180521174224 80 52 4.0 9.0 0.00 0.37 0.28 82 1017.7
20180521173728 80 103 4.0 9.0 0.00 0.37 0.28 83 1017.9
20180521173241 79 113 4.0 9.0 0.00 0.37 0.28 84 1017.9
20180521172728 79 113 4.0 9.0 0.00 0.38 0.28 82 1017.9
20180521172238 78 55 3.0 7.0 0.00 0.38 0.28 84 1018.0
20180521171733 78 135 5.0 11.0 0.00 0.38 0.28 84 1018.1
20180521171253 78 94 5.0 11.0 0.00 0.40 0.28 83 1018.1
20180521170738 78 42 3.0 11.0 0.00 0.40 0.28 87 1018.2
20180521170217 78 107 6.0 11.0 0.00 0.41 0.28 84 1018.3
20180521165728 77 144 1.0 5.0 0.00 0.41 0.28 87 1018.4
20180521165236 77 89 3.0 5.0 0.00 0.41 0.28 89 1018.5
20180521164723 0 0.0 0.0 0.00 0.42 0.28 1018.4
20180521164230 77 102 4.0 9.0 0.00 0.42 0.28 89 1018.5
20180521163719 77 109 4.0 9.0 0.00 0.44 0.28 89 1018.6
20180521163220 76 99 5.0 9.0 0.00 0.45 0.28 89 1018.6
20180521162726 76 107 3.0 6.0 0.00 0.46 0.28 91 1018.6
20180521162237 75 92 3.0 6.0 0.00 0.48 0.28 92 1018.5
20180521161744 75 127 4.0 7.0 0.00 0.50 0.28 92 1018.5
20180521161238 75 102 4.0 7.0 0.00 0.53 0.28 92 1018.5
20180521160732 75 131 4.0 7.0 0.00 0.54 0.28 93 1018.5
20180521160225 74 104 3.0 6.0 0.00 0.56 0.28 93 1018.6
20180521155734 74 27 2.0 5.0 0.00 0.58 0.28 94 1018.6
20180521155216 74 30 3.0 4.0 0.00 0.65 0.28 94 1018.7
20180521154740 74 128 2.0 4.0 0.00 0.73 0.28 95 1018.8
20180521154726 74 134 2.0 4.0 0.00 0.68 0.28 95 1018.8
20180521154224 74 128 2.0 4.0 0.00 0.73 0.28 95 1018.8
20180521153734 74 92 2.0 4.0 0.00 0.78 0.28 95 1018.7
20180521153215 73 102 1.0 4.0 0.00 0.90 0.28 95 1018.6
20180521152730 73 107 2.0 4.0 0.00 0.99 0.28 96 1018.7
20180521152215 73 93 2.0 4.0 0.00 1.03 0.28 96 1018.7
20180521151719 72 94 2.0 3.0 0.00 1.04 0.28 96 1018.8
20180521151216 72 75 2.0 3.0 0.00 1.04 0.28 96 1018.9
20180521150725 72 96 2.0 4.0 0.00 1.04 0.28 96 1018.9
20180521150228 72 0 1.0 4.0 0.00 1.04 0.28 96 1018.9
20180521145727 71 97 2.0 5.0 0.01 1.04 0.28 96 1019.0
20180521145214 71 100 3.0 5.0 0.01 1.04 0.28 96 1019.0
20180521144724 71 121 3.0 5.0 0.01 1.04 0.28 96 1019.0
20180521144234 71 124 3.0 5.0 0.01 1.04 0.28 96 1019.1
20180521143735 71 93 3.0 4.0 0.01 1.04 0.28 96 1018.8
20180521143217 71 93 3.0 4.0 0.01 1.04 0.28 96 1018.7
20180521142739 71 90 0.0 3.0 0.01 1.04 0.28 97 1018.8
20180521142221 71 109 0.0 4.0 0.01 1.04 0.28 96 1018.8
20180521141728 71 107 2.0 4.0 0.01 1.04 0.28 96 1018.9
20180521141224 71 113 0.0 5.0 0.01 1.04 0.28 96 1018.9
20180521140724 71 72 2.0 5.0 0.01 1.04 0.28 96 1018.9
20180521140229 71 111 1.0 2.0 0.01 1.04 0.28 96 1018.8
20180521135716 71 128 2.0 3.0 0.00 1.03 0.27 96 1018.7
20180521135223 71 128 2.0 3.0 0.00 1.03 0.27 96 1018.7
20180521134715 71 306 1.0 3.0 0.00 1.03 0.27 96 1018.8
20180521134220 71 116 2.0 5.0 0.00 1.03 0.27 96 1018.7
20180521133719 71 99 3.0 5.0 0.00 1.03 0.27 96 1018.7
20180521133219 71 154 2.0 4.0 0.00 1.03 0.27 96 1018.7
20180521132718 71 117 3.0 4.0 0.00 1.03 0.27 96 1018.8
20180521132234 71 109 1.0 4.0 0.00 1.03 0.27 96 1018.8
20180521131721 71 117 2.0 4.0 0.00 1.03 0.27 96 1018.7
20180521131226 71 151 1.0 3.0 0.00 1.03 0.27 96 1018.8
20180521130725 71 157 1.0 4.0 0.00 1.03 0.27 96 1018.8
20180521130227 71 164 2.0 4.0 0.00 1.03 0.27 96 1018.9
20180521125714 71 190 2.0 3.0 0.00 1.03 0.27 96 1018.8
20180521125216 71 124 0.0 4.0 0.00 1.03 0.27 96 1018.6
20180521124714 70 124 2.0 4.0 0.00 1.03 0.27 96 1018.5
20180521124216 70 120 2.0 4.0 0.00 1.03 0.27 96 1018.3
20180521123724 70 113 2.0 5.0 0.00 1.03 0.27 96 1018.4
20180521123215 70 204 2.0 5.0 0.00 1.03 0.27 96 1018.3
20180521122714 70 140 1.0 3.0 0.00 1.03 0.27 96 1018.4
20180521122223 70 124 2.0 4.0 0.00 1.03 0.27 96 1018.2
20180521121713 70 147 1.0 4.0 0.00 1.03 0.27 96 1018.2
20180521121205 70 106 2.0 5.0 0.00 1.03 0.27 96 1018.1
20180521120707 70 159 2.0 5.0 0.00 1.03 0.27 96 1017.9
20180521120207 70 157 2.0 4.0 0.00 1.03 0.27 96 1018.0
20180521115707 70 123 2.0 6.0 0.00 1.03 0.27 96 1018.0
20180521115212 70 123 3.0 6.0 0.00 1.03 0.27 96 1018.1
20180521114714 70 168 2.0 4.0 0.00 1.03 0.27 96 1018.1
20180521114210 70 135 1.0 5.0 0.00 1.03 0.27 96 1018.1
20180521113706 70 97 3.0 6.0 0.00 1.03 0.27 96 1018.1
20180521113205 70 127 2.0 6.0 0.00 1.03 0.27 96 1018.1
20180521112720 70 72 3.0 4.0 0.00 1.03 0.27 96 1017.9
20180521112212 70 120 2.0 4.0 0.00 1.03 0.27 96 1017.9
20180521111720 70 141 0.0 5.0 0.00 1.03 0.27 96 1017.8
20180521111215 70 127 2.0 5.0 0.00 1.03 0.27 96 1017.8
20180521110706 70 123 2.0 5.0 0.00 1.03 0.27 96 1017.7
20180521110222 69 121 2.0 7.0 0.00 1.03 0.27 96 1017.7
20180521105722 69 80 2.0 7.0 0.00 1.03 0.27 95 1017.7
20180521105212 69 124 0.0 3.0 0.00 1.03 0.27 95 1017.6
20180521104709 69 110 0.0 1.0 0.01 1.03 0.27 95 1017.5
20180521104206 69 110 0.0 2.0 0.08 1.03 0.27 95 1017.4
20180521103714 69 110 0.0 2.0 0.20 1.03 0.27 96 1017.2
20180521103210 70 110 1.0 2.0 0.24 1.03 0.27 96 1017.2
20180521102704 70 82 1.0 5.0 0.27 1.03 0.27 96 1017.2
20180521102220 70 135 2.0 5.0 0.27 1.03 0.27 96 1017.3
20180521101718 70 72 2.0 5.0 0.27 1.03 0.27 96 1017.4
20180521101204 70 113 2.0 4.0 0.27 1.03 0.27 96 1017.4
20180521100706 70 145 2.0 4.0 0.27 1.03 0.27 95 1017.4
20180521100212 70 130 2.0 4.0 0.27 1.03 0.27 95 1017.4
20180521095736 70 113 2.0 4.0 0.27 1.03 0.27 95 1017.3
20180521095214 70 118 2.0 6.0 0.27 1.03 0.27 95 1017.2
20180521094717 70 103 2.0 10.0 0.26 1.02 0.26 95 1017.4
20180521094230 71 134 3.0 12.0 0.19 0.95 0.19 95 1017.4
20180521093727 72 111 6.0 12.0 0.07 0.83 0.07 96 1017.5
20180521093220 72 134 0.0 2.0 0.03 0.79 0.03 96 1017.2
20180521092721 72 130 1.0 2.0 0.00 0.76 0.00 96 1017.0
20180521092206 72 130 1.0 3.0 0.00 0.76 0.00 96 1016.9
20180521091725 72 130 1.0 3.0 0.00 0.76 0.00 96 1016.8
20180521091237 72 78 1.0 3.0 0.00 0.76 0.00 96 1016.7
20180521090722 72 39 0.0 2.0 0.00 0.76 0.00 96 1016.7
20180521090219 72 39 1.0 3.0 0.00 0.76 0.00 96 1016.6
20180521085722 73 39 1.0 3.0 0.00 0.76 0.00 96 1016.6
20180521085236 73 58 2.0 2.0 0.00 0.76 0.00 96 1016.6
20180521084725 73 32 0.0 3.0 0.00 0.76 0.00 96 1016.6
20180521084220 73 85 1.0 3.0 0.00 0.76 0.00 96 1016.7
20180521083706 73 87 0.0 4.0 0.00 0.76 0.00 96 1016.7
20180521083202 73 62 2.0 4.0 0.00 0.76 0.00 96 1016.7
20180521082728 73 111 0.0 3.0 0.00 0.76 0.00 96 1016.7
20180521082204 73 110 1.0 3.0 0.00 0.76 0.00 96 1016.7
20180521081714 73 97 0.0 2.0 0.00 0.76 0.00 96 1016.7
20180521081238 73 110 0.0 4.0 0.00 0.76 0.00 96 1016.6
20180521080729 73 116 1.0 4.0 0.00 0.76 0.00 96 1016.6
20180521080200 73 92 1.0 2.0 0.00 0.76 0.00 96 1016.9
20180521075714 73 100 2.0 3.0 0.00 0.76 0.00 96 1016.9
20180521075205 73 123 0.0 3.0 0.00 0.76 0.00 96 1017.0
20180521074710 73 118 1.0 3.0 0.00 0.76 0.00 96 1017.0
20180521074208 73 121 0.0 5.0 0.00 0.76 0.00 96 1017.0
20180521073730 73 114 2.0 5.0 0.00 0.76 0.00 96 1016.9
20180521073218 73 103 2.0 4.0 0.00 0.76 0.00 96 1016.9
20180521072725 73 97 3.0 4.0 0.00 0.76 0.00 96 1017.0
20180521072235 73 82 2.0 4.0 0.00 0.76 0.00 96 1017.0
20180521071725 73 85 2.0 4.0 0.00 0.76 0.00 96 1017.0
20180521071213 73 90 2.0 4.0 0.00 0.76 0.00 96 1017.0
20180521070707 73 75 2.0 7.0 0.00 0.76 0.00 96 1017.1
20180521070231 73 73 2.0 7.0 0.00 0.76 0.00 96 1017.0
20180521065704 73 106 1.0 4.0 0.00 0.76 0.00 96 1017.1
20180521065222 73 109 2.0 4.0 0.00 0.76 0.00 96 1017.2
20180521064714 73 37 1.0 4.0 0.00 0.76 0.00 96 1017.3
20180521064205 73 106 2.0 4.0 0.00 0.76 0.00 96 1017.4
20180521063716 73 92 2.0 6.0 0.00 0.76 0.00 96 1017.4
20180521063156 73 100 3.0 6.0 0.00 0.76 0.00 96 1017.3
20180521062655 73 102 3.0 4.0 0.00 0.76 0.00 96 1017.2
20180521062227 73 89 2.0 5.0 0.00 0.76 0.00 96 1017.3
20180521061731 73 93 2.0 5.0 0.00 0.76 0.00 96 1017.4
20180521061213 73 113 2.0 4.0 0.00 0.76 0.00 96 1017.5
20180521060715 73 10 2.0 4.0 0.00 0.76 0.00 96 1017.5
20180521060216 73 31 2.0 4.0 0.00 0.76 0.00 96 1017.5
20180521055720 73 113 2.0 4.0 0.00 0.76 0.00 96 1017.5
20180521055214 73 54 0.0 3.0 0.00 0.76 0.00 96 1017.6
20180521054717 73 54 1.0 3.0 0.00 0.76 0.00 96 1017.7
20180521054158 73 75 1.0 4.0 0.00 0.76 0.00 96 1017.7
20180521053733 73 55 1.0 4.0 0.00 0.76 0.00 96 1017.7
20180521053202 72 61 0.0 3.0 0.00 0.76 0.00 96 1017.7
20180521052702 72 59 1.0 3.0 0.00 0.76 0.00 96 1017.8
20180521052228 72 65 1.0 3.0 0.00 0.76 0.00 96 1017.8
20180521051700 72 47 1.0 3.0 0.00 0.76 0.00 96 1017.9
20180521051158 72 49 1.0 3.0 0.00 0.76 0.00 96 1017.8
20180521050701 72 59 0.0 2.0 0.00 0.76 0.00 96 1017.8
20180521050218 72 52 0.0 4.0 0.00 0.76 0.00 96 1017.9
20180521045701 72 52 2.0 4.0 0.00 0.76 0.00 96 1017.9
20180521045220 72 154 3.0 5.0 0.00 0.76 0.00 96 1017.8
20180521044708 72 106 2.0 5.0 0.00 0.76 0.00 96 1017.9
20180521044200 72 92 2.0 4.0 0.00 0.76 0.00 96 1017.8
20180521043716 72 69 2.0 4.0 0.00 0.76 0.00 96 1017.9
20180521043213 72 96 0.0 3.0 0.00 0.76 0.00 96 1017.9
20180521042713 72 96 1.0 3.0 0.00 0.76 0.00 96 1017.9
20180521042233 72 73 0.0 4.0 0.00 0.76 0.00 96 1018.1
20180521041715 72 47 0.0 4.0 0.00 0.76 0.00 96 1018.1
20180521041203 72 102 2.0 3.0 0.00 0.76 0.00 96 1018.1
20180521040710 72 85 0.0 3.0 0.00 0.76 0.00 96 1018.1
20180521040214 71 59 0.0 5.0 0.00 0.76 0.00 96 1018.2
20180521035706 71 75 2.0 5.0 0.00 0.76 0.76 96 1018.2
20180521035213 71 63 1.0 3.0 0.00 0.76 0.76 96 1018.2
20180521034708 0 0.0 0.0 0.00 0.76 0.76 1018.2
20180521034201 0 0.0 0.0 0.00 0.76 0.76 1018.1
20180521033705 71 35 2.0 4.0 0.00 0.76 0.76 96 1018.2
20180521033200 71 35 1.0 4.0 0.00 0.76 0.76 96 1018.2
20180521032703 71 75 1.0 4.0 0.00 0.76 0.76 96 1018.3
20180521032158 71 97 2.0 4.0 0.00 0.76 0.76 96 1018.3
20180521031658 71 62 1.0 4.0 0.00 0.76 0.76 96 1018.4
20180521031155 71 1 2.0 4.0 0.00 0.76 0.76 96 1018.3
20180521030706 71 99 1.0 4.0 0.00 0.76 0.76 96 1018.3
20180521030202 71 13 2.0 4.0 0.00 0.76 0.76 96 1018.2
20180521025654 71 56 2.0 3.0 0.00 0.76 0.76 95 1018.2
20180521025154 71 79 2.0 4.0 0.00 0.76 0.76 95 1018.2
20180521024656 71 90 2.0 5.0 0.00 0.76 0.76 95 1018.1
20180521024222 71 56 3.0 5.0 0.00 0.76 0.76 95 1018.0
20180521023656 71 72 2.0 5.0 0.00 0.76 0.76 95 1017.9
20180521023155 71 39 3.0 5.0 0.00 0.76 0.76 95 1017.8
20180521022703 70 118 2.0 5.0 0.00 0.76 0.76 95 1017.7
20180521022213 70 116 1.0 5.0 0.00 0.76 0.76 95 1017.7
20180521021651 70 71 1.0 4.0 0.00 0.76 0.76 94 1017.7
20180521021154 70 49 0.0 5.0 0.00 0.76 0.76 94 1017.7
20180521020658 70 27 1.0 5.0 0.00 0.76 0.76 94 1017.7
20180521020147 70 85 2.0 5.0 0.00 0.76 0.76 94 1017.7
20180521015657 70 87 2.0 6.0 0.00 0.76 0.76 94 1017.7
20180521015157 70 109 2.0 9.0 0.00 0.76 0.76 94 1017.7
20180521014657 70 109 3.0 9.0 0.01 0.76 0.76 94 1017.7
20180521014200 70 73 3.0 6.0 0.01 0.76 0.76 93 1017.6
20180521013702 70 23 4.0 5.0 0.01 0.76 0.76 93 1017.6
20180521013149 70 24 2.0 5.0 0.01 0.76 0.76 93 1017.6
20180521012700 70 27 2.0 4.0 0.01 0.76 0.76 92 1017.6
20180521012157 70 99 2.0 5.0 0.01 0.76 0.76 92 1017.7
20180521011659 70 54 3.0 6.0 0.01 0.76 0.76 92 1017.8
20180521011150 70 89 3.0 6.0 0.01 0.76 0.76 92 1017.7
20180521010650 70 62 3.0 9.0 0.01 0.76 0.76 92 1017.7
20180521010154 70 37 3.0 9.0 0.01 0.76 0.76 92 1017.7
20180521005716 70 21 2.0 5.0 0.01 0.76 0.76 92 1017.7
20180521005203 70 71 3.0 5.0 0.01 0.76 0.76 92 1017.7
20180521004658 70 107 2.0 6.0 0.00 0.75 0.75 92 1017.7
20180521004157 70 0 3.0 6.0 0.00 0.75 0.75 92 1017.7
20180521003654 70 0 3.0 5.0 0.00 0.75 0.75 92 1017.7
20180521003154 70 90 4.0 6.0 0.00 0.75 0.75 92 1017.7
20180521002713 71 0 3.0 5.0 0.00 0.75 0.75 92 1017.7
20180521002649 71 44 2.0 6.0 0.00 0.75 0.75 92 1017.7
20180521002203 71 0 3.0 5.0 0.00 0.75 0.75 92 1017.7
20180521001653 71 7 2.0 4.0 0.00 0.75 0.75 92 1017.7
20180521001152 71 3 2.0 4.0 0.00 0.75 0.75 92 1017.6
20180521000659 71 34 1.0 4.0 0.00 0.75 0.75 92 1017.5
20180521000203 71 41 2.0 4.0 0.00 0.75 0.75 92 1017.5
20180520235705 71 17 2.0 4.0 0.00 0.75 0.75 92 1017.6
20180520235147 71 66 1.0 3.0 0.00 0.75 0.75 92 1017.5
20180520234646 71 66 2.0 3.0 0.00 0.75 0.75 92 1017.6
20180520234147 71 75 1.0 3.0 0.00 0.75 0.75 91 1017.6
20180520233700 71 65 2.0 4.0 0.00 0.75 0.75 91 1017.7
20180520233204 71 355 1.0 4.0 0.00 0.75 0.75 91 1017.7
20180520232654 71 18 3.0 4.0 0.00 0.75 0.75 91 1017.6
20180520232151 71 47 1.0 4.0 0.00 0.75 0.75 91 1017.6
20180520231655 71 121 0.0 4.0 0.00 0.75 0.75 91 1017.5
20180520231212 71 11 1.0 4.0 0.00 0.75 0.75 91 1017.5
20180520230655 72 83 2.0 3.0 0.00 0.75 0.75 91 1017.4
20180520230206 72 76 2.0 4.0 0.00 0.75 0.75 90 1017.5
20180520225647 72 68 1.0 4.0 0.00 0.75 0.75 90 1017.4
20180520225154 72 58 2.0 6.0 0.00 0.75 0.75 90 1017.5
20180520224652 72 116 2.0 6.0 0.00 0.75 0.75 90 1017.4
20180520224154 72 0 2.0 5.0 0.00 0.75 0.75 90 1017.4
20180520223652 72 63 2.0 5.0 0.00 0.75 0.75 89 1017.6
20180520223147 72 78 2.0 9.0 0.00 0.75 0.75 89 1017.5
20180520222653 73 78 3.0 9.0 0.00 0.75 0.75 89 1017.5
20180520222139 73 16 5.0 6.0 0.00 0.75 0.75 90 1017.4
20180520221705 73 123 3.0 5.0 0.00 0.75 0.75 91 1017.4
20180520221200 73 56 2.0 5.0 0.00 0.75 0.75 92 1017.5
20180520220708 73 110 2.0 5.0 0.00 0.75 0.75 92 1017.6
20180520220156 73 96 3.0 5.0 0.00 0.75 0.75 92 1017.5
20180520215710 73 96 2.0 5.0 0.00 0.75 0.75 93 1017.5
20180520215151 73 102 2.0 6.0 0.00 0.75 0.75 93 1017.3
20180520214653 73 80 2.0 7.0 0.00 0.75 0.75 93 1017.4
20180520214150 73 34 4.0 7.0 0.00 0.75 0.75 93 1017.4
20180520213651 73 52 3.0 7.0 0.00 0.75 0.75 93 1017.4
20180520213156 73 93 3.0 7.0 0.00 0.75 0.75 93 1017.4
20180520212643 73 82 2.0 6.0 0.00 0.75 0.75 93 1017.4
20180520212148 73 71 3.0 6.0 0.00 0.75 0.75 94 1017.4
20180520211654 73 73 3.0 6.0 0.00 0.75 0.75 94 1017.4
20180520211150 73 102 3.0 6.0 0.00 0.75 0.75 94 1017.4
20180520210705 73 75 2.0 6.0 0.00 0.75 0.75 94 1017.4
20180520210152 73 42 4.0 9.0 0.00 0.75 0.75 94 1017.5